Location: Shepherdstown, WV
(39.4326°N, 77.8042°W)
Time: 16:20:03
(UTC-04:00)

Tiros 1 despin weight - Pass Details

Date: 08 August 2021
Orbit: 593 x 641 km, 48.2° (Epoch: 18 September)

Event Time Altitude Azimuth Distance (km) Brightness Sun altitude
Rises 10:11:51 0° 202° (SSW) 2,872 ? 43.5°
Reaches altitude 10° 10:14:29 10° 188° (S) 1,980 ? 44.0°
Maximum altitude 10:18:08 24° 135° (SE) 1,304 ? 44.6°
Drops below altitude 10° 10:21:49 10° 81° (E) 2,011 ? 45.3°
Sets 10:24:30 0° 68° (ENE) 2,929 ? 45.8°
